VE7GEL Weather Reports


Display with metric or nautical units.
time (UTC)temp
F
wind
direction
speed
MPH
gust
MPH
rain 1hr
in
rain 24hr
in
rain mn
in
humidity
%
barometer
mb
20260503221539 71 216 1.0 4.0 0.00 0.00 0.00 57 1012.1
20260503220034 78 0 1.0 3.0 0.00 0.00 0.00 38 1011.9
20260503220002 78 0 1.0 2.0 0.00 0.00 0.00 38 1012.2
20260503214536 78 259 1.0 4.0 0.00 0.00 0.00 38 1012.0
20260503214505 78 228 1.0 4.0 0.00 0.00 0.00 39 1012.3
20260503213035 77 222 1.0 4.0 0.00 0.00 0.00 40 1012.1
20260503211535 75 0 1.0 3.0 0.00 0.00 0.00 42 1012.2
20260503211502 75 256 1.0 3.0 0.00 0.00 0.00 43 1012.6
20260503210031 74 188 1.0 4.0 0.00 0.00 0.00 43 1012.5
20260503204532 73 0 1.0 4.0 0.00 0.00 0.00 44 1012.7
20260503204502 72 173 1.0 3.0 0.00 0.00 0.00 44 1013.0
20260503203034 66 0 0.0 3.0 0.00 0.00 0.00 54 1012.9
20260503201533 62 0 0.0 2.0 0.00 0.00 0.00 67 1013.2
20260503201502 62 0 0.0 1.0 0.00 0.00 0.00 67 1013.5
20260503200030 62 41 0.0 3.0 0.00 0.00 0.00 67 1013.3
20260503200002 61 0 0.0 3.0 0.00 0.00 0.00 68 1013.6
20260503194531 60 0 0.0 3.0 0.00 0.00 0.00 71 1013.4
20260503193029 60 240 1.0 3.0 0.00 0.00 0.00 72 1013.5
20260503191526 59 209 1.0 5.0 0.00 0.00 0.00 74 1013.6
20260503191502 59 203 1.0 5.0 0.00 0.00 0.00 74 1014.0
20260503190025 59 0 0.0 3.0 0.00 0.00 0.00 75 1013.8
20260503184524 59 0 0.0 3.0 0.00 0.00 0.00 75 1013.9
20260503183027 58 168 0.0 3.0 0.00 0.00 0.00 78 1014.1
20260503181525 58 0 0.0 2.0 0.00 0.00 0.00 78 1014.2
20260503181504 58 214 0.0 2.0 0.00 0.00 0.00 79 1014.6
20260503180024 58 253 0.0 2.0 0.00 0.00 0.00 80 1014.4
20260503174525 58 241 0.0 3.0 0.00 0.00 0.00 78 1014.5
20260503174503 58 225 0.0 2.0 0.00 0.00 0.00 78 1014.8
20260503173023 59 265 0.0 2.0 0.00 0.00 0.00 74 1014.4
20260503171524 59 193 0.0 2.0 0.00 0.00 0.00 71 1014.5
20260503171503 59 0 0.0 2.0 0.00 0.00 0.00 71 1014.8
20260503081419 59 0 0.0 2.0 0.00 0.00 0.00 79 1014.2
20260503072917 61 0 0.0 1.0 0.00 0.00 0.00 74 1014.1
20260503071503 61 0 0.0 2.0 0.00 0.00 0.00 75 1014.4
20260503071416 61 0 0.0 2.0 0.00 0.00 0.00 75 1014.1
20260503054411 63 313 0.0 2.0 0.00 0.00 0.02 65 1014.1
20260503052912 64 295 0.0 2.0 0.00 0.00 0.02 64 1014.2
20260503051502 66 33 0.0 2.0 0.00 0.00 0.02 55 1014.5
20260503051411 66 0 0.0 2.0 0.00 0.00 0.02 55 1014.2
20260503045912 66 0 0.0 2.0 0.00 0.00 0.02 58 1014.2
20260503044502 67 0 0.0 2.0 0.00 0.00 0.02 54 1014.4
20260503044410 67 0 0.0 2.0 0.00 0.00 0.02 53 1014.0
20260503043002 67 0 0.0 2.0 0.00 0.00 0.02 48 1014.3
20260503042851 67 0 0.0 2.0 0.00 0.00 0.02 48 1014.0
20260503041353 67 0 0.0 1.0 0.00 0.00 0.02 47 1014.0
20260503035853 67 0 0.0 2.0 0.00 0.00 0.02 48 1013.8
20260503034502 67 39 0.0 2.0 0.00 0.00 0.02 50 1013.9
20260503034346 67 39 0.0 2.0 0.00 0.00 0.02 50 1013.6
20260503032848 66 0 0.0 2.0 0.00 0.00 0.02 52 1013.5
20260503031502 66 0 0.0 2.0 0.00 0.00 0.02 52 1013.7
20260503031346 66 0 0.0 2.0 0.00 0.00 0.02 52 1013.4
20260503030002 66 279 0.0 2.0 0.00 0.00 0.02 53 1013.6
20260503025850 66 0 0.0 2.0 0.00 0.00 0.02 53 1013.3
20260503024502 66 0 0.0 2.0 0.00 0.00 0.02 53 1013.7
20260503024344 66 0 0.0 3.0 0.00 0.00 0.02 53 1013.4
20260503022848 69 0 0.0 2.0 0.00 0.00 0.02 51 1013.5
20260503021503 71 0 0.0 2.0 0.00 0.00 0.02 48 1013.8
20260503021345 71 292 0.0 2.0 0.00 0.00 0.02 48 1013.5
20260503015851 71 0 0.0 3.0 0.00 0.00 0.02 47 1013.5
20260503014339 72 231 1.0 3.0 0.00 0.00 0.02 46 1013.7
20260503012841 73 243 1.0 2.0 0.00 0.00 0.02 46 1013.9
20260503011502 72 284 0.0 2.0 0.00 0.00 0.02 47 1014.2
20260503011337 72 0 0.0 3.0 0.00 0.00 0.02 47 1013.9
20260503005841 71 272 0.0 2.0 0.00 0.00 0.02 50 1014.0
20260503004334 72 239 1.0 4.0 0.00 0.00 0.02 49 1014.2
20260503002839 70 43 0.0 3.0 0.00 0.00 0.02 50 1014.3
20260503001336 69 275 0.0 2.0 0.00 0.00 0.02 54 1014.4
20260502235835 67 103 0.0 4.0 0.00 0.00 0.02 59 1014.5
20260502234502 67 204 0.0 4.0 0.00 0.00 0.02 60 1015.1
20260502234332 67 0 0.0 4.0 0.00 0.00 0.02 60 1014.8
20260502233002 65 279 1.0 3.0 0.00 0.00 0.02 63 1015.2
20260502232837 65 0 0.0 0.0 0.00 0.00 0.02 64 1014.9
20260502232103 65 77 1.0 4.0 0.00 0.02 0.02 64 1015.1
20260502230601 63 263 1.0 4.0 0.00 0.02 0.02 71 1015.2
20260502225101 64 190 1.0 4.0 0.00 0.02 0.02 70 1015.4
20260502224502 64 50 1.0 4.0 0.00 0.02 0.02 69 1015.8
20260502223600 65 88 1.0 5.0 0.00 0.02 0.02 70 1015.6
20260502222101 65 247 2.0 4.0 0.02 0.02 0.02 61 1015.8